This is the latest recevied weather packets stored in our database for station/object WE8L. If no packets are shown the sender has not sent any weather packets the latest 10 day(s).
| Time | Temp. | Humidity | Pressure | Rain* | Wind** | Luminosity | Snow |
|---|---|---|---|---|---|---|---|
| 1777399364 | 21.11° C | 74% | 1016.5 hPa | 0 mm | - | 616 W/m² | - |
| 1777399061 | 21.11° C | 76% | 1016.4 hPa | 0 mm | - | 128 W/m² | - |
| 1777398758 | 20.56° C | 77% | 1016.6 hPa | 0 mm | - | 172 W/m² | - |
| 1777398455 | 20.56° C | 78% | 1016.4 hPa | 0 mm | - | 545 W/m² | - |
| 1777398152 | 20.56° C | 78% | 1016.5 hPa | 0 mm | - | 91 W/m² | - |
| 1777397849 | 20° C | 78% | 1016.4 hPa | 0 mm | - | 74 W/m² | - |
| 1777397549 | 20.56° C | 78% | 1016.5 hPa | 0 mm | - | 81 W/m² | - |
| 1777397245 | 20.56° C | 78% | 1016.6 hPa | 0 mm | - | 59 W/m² | - |
| 1777396942 | 21.11° C | 79% | 1016.5 hPa | 0 mm | - | 154 W/m² | - |
| 1777396639 | 21.11° C | 76% | 1016.6 hPa | 0 mm | - | 126 W/m² | - |
| 1777396336 | 21.11° C | 75% | 1016.7 hPa | 0 mm | - | 507 W/m² | - |
| 1777396032 | 21.11° C | 76% | 1017 hPa | 0 mm | - | 109 W/m² | - |
| 1777395727 | 21.67° C | 74% | 1016.7 hPa | 0 mm | - | 132 W/m² | - |
| 1777395423 | 21.67° C | 76% | 1016.9 hPa | 0 mm | - | 304 W/m² | - |
| 1777395121 | 21.11° C | 76% | 1016.9 hPa | 0 mm | - | 206 W/m² | - |
| 1777394818 | 20.56° C | 77% | 1016.7 hPa | 0 mm | - | 279 W/m² | - |
| 1777394514 | 20.56° C | 77% | 1016.9 hPa | 0 mm | - | 147 W/m² | - |
| 1777394211 | 20.56° C | 78% | 1017 hPa | 0 mm | - | 180 W/m² | - |
| 1777393906 | 20.56° C | 79% | 1017.1 hPa | 0 mm | - | 587 W/m² | - |
| 1777393606 | 20° C | 81% | 1017.2 hPa | 0 mm | - | 245 W/m² | - |
| 1777393301 | 20° C | 81% | 1017.2 hPa | 0 mm | - | 127 W/m² | - |
| 1777392998 | 20° C | 82% | 1017 hPa | 0 mm | - | 127 W/m² | - |
| 1777392693 | 19.44° C | 83% | 1016.9 hPa | 0 mm | - | 507 W/m² | - |
| 1777392391 | 20° C | 82% | 1016.9 hPa | 0 mm | - | 91 W/m² | - |
| 1777392085 | 20° C | 83% | 1016.6 hPa | 0 mm | - | 143 W/m² | - |
* Rain latest hour (hover to see other rain measurements)
** Current wind speed in m/s (hover to see current wind gust speed)